Regional Weather Roundup
Issued by NWS

Home | Current Version | Previous Version | Text Only | Print | Product List | Glossary Off
Versions: 1 2 3 4 5 6 7 8 9 10 11 12 13 14 15 16 17 18 19 20 21 22 23 24 25 26 27 28 29 30 31 32 33 34 35 36 37 38 39 40 41 42 43 44 45 46 47 48 49 50

000
ASUS43 KMKX 251211
RWRWI

WISCONSIN REGIONAL WEATHER ROUNDUP
NATIONAL WEATHER SERVICE MILWAUKEE/SULLIVAN WI
700 AM CDT TUE APR 25 2017

NOTE: "FAIR" INDICATES FEW OR NO CLOUDS BELOW 12,000 FEET WITH NO
SIGNIFICANT WEATHER AND/OR OBSTRUCTIONS TO VISIBILITY.

WIZ001-002-006>008-014>016-023>028-251300-
NORTHWEST WISCONSIN

CITY           SKY/WX    TMP DP  RH WIND       PRES   REMARKS
SUPERIOR ARPT  CLOUDY    38  37  94 NE12G17   29.59S WCI  31
6HR MIN TEMP:  37; 6HR MAX TEMP:  38; 6HR PCP:  0.01;

ASHLAND        CLOUDY    42  38  85 NE5       29.58F
6HR MIN TEMP:  39; 6HR MAX TEMP:  42; 6HR PCP:  0.01;

HAYWARD        CLOUDY    58  32  37 SE9       29.55R
6HR MIN TEMP:  57; 6HR MAX TEMP:  64; 6HR PCP: TRACE;

SIREN          CLOUDY    47  42  81 CALM      29.53S
6HR MIN TEMP:  47; 6HR MAX TEMP:  58;

CUMBERLAND     CLOUDY    54  32  43 SE5       29.53F
RICE LAKE      CLOUDY    57  33  39 SE7       29.56S
6HR MIN TEMP:  57; 6HR MAX TEMP:  64;

CHETEK         CLOUDY    56  36  45 SE3       29.55S
6HR MIN TEMP:  56; 6HR MAX TEMP:  61;

LADYSMITH      CLOUDY    56  34  44 SE8       29.59S
6HR MIN TEMP:  56; 6HR MAX TEMP:  60;

EAU CLAIRE     CLOUDY    57  32  38 SE8       29.54S
6HR MIN TEMP:  57; 6HR MAX TEMP:  61;

MENOMONIE      CLOUDY    57  35  44 E6        29.53F
6HR MIN TEMP:  56; 6HR MAX TEMP:  61;

NEW RICHMOND   CLOUDY    58  33  38 E7        29.51S
6HR MIN TEMP:  57; 6HR MAX TEMP:  63;

OSCEOLA        LGT RAIN  58  38  48 E6        29.53S
6HR MIN TEMP:  53; 6HR MAX TEMP:  59;

$$

WIZ003>005-009-010-017-018-251300-
NORTH CENTRAL WISCONSIN

CITY           SKY/WX    TMP DP  RH WIND       PRES   REMARKS
MANITOWISH WTR CLOUDY    50  34  53 SE6       29.62S
6HR MIN TEMP:  48; 6HR MAX TEMP:  53;

ARBOR VITAE    CLOUDY    53  35  50 SE9       29.62S
6HR MIN TEMP:  52; 6HR MAX TEMP:  55;

WOODRUFF       CLOUDY    53  35  50 SE9       29.62S
6HR MIN TEMP:  52; 6HR MAX TEMP:  55;

RHINELANDER    MOSUNNY   54  34  46 SE8       29.65S
6HR MIN TEMP:  49; 6HR MAX TEMP:  54;

EAGLE RIVER    CLOUDY    51  32  47 SE7       29.65S
6HR MIN TEMP:  46; 6HR MAX TEMP:  51;

LAND O LAKES   MOSUNNY   52  32  47 SE8       29.66F
6HR MIN TEMP:  46; 6HR MAX TEMP:  53;

PHILLIPS       CLOUDY    52  35  51 SE8       29.60R
6HR MIN TEMP:  49; 6HR MAX TEMP:  55;

TOMAHAWK       PTCLDY    50  34  53 SE6       29.64S
6HR MIN TEMP:  49; 6HR MAX TEMP:  54;

MEDFORD        CLOUDY    52  35  52 SE9       29.61S
6HR MIN TEMP:  51; 6HR MAX TEMP:  55;

MERRILL        CLOUDY    49  35  58 SE6       29.65S
6HR MIN TEMP:  49; 6HR MAX TEMP:  56;

$$

WIZ029-030-035-036-043>047-251300-
CENTRAL WISCONSIN

CITY           SKY/WX    TMP DP  RH WIND       PRES   REMARKS
WAUSAU         CLOUDY    50  35  56 E8        29.63S
6HR MIN TEMP:  49; 6HR MAX TEMP:  59;

MOSINEE        MOCLDY    54  36  50 SE8       29.65S
MARSHFIELD     CLOUDY    52  36  54 SE7       29.61S
6HR MIN TEMP:  52; 6HR MAX TEMP:  59;

STEVENS POINT  CLOUDY    52  36  53 SE8       29.65S
6HR MIN TEMP:  52; 6HR MAX TEMP:  60;

WAUPACA        PTSUNNY   54  39  57 E5        29.67S
6HR MIN TEMP:  52; 6HR MAX TEMP:  60;

WAUTOMA        PTSUNNY   51  39  63 E3        29.66S
6HR MIN TEMP:  47; 6HR MAX TEMP:  61;

WISC RAPIDS    PTCLDY    55  38  52 SE7       29.63F
6HR MIN TEMP:  54; 6HR MAX TEMP:  63;

CAMP DOUGLAS   MOCLDY    50  37  62 SE9       29.60F
$$

WIZ011>013-019>022-031-037>040-048>050-251300-
NORTHEAST WISCONSIN

CITY           SKY/WX    TMP DP  RH WIND       PRES   REMARKS
ANTIGO         CLOUDY    46  35  65 SE10      29.68R
6HR MIN TEMP:  45; 6HR MAX TEMP:  48;

SHAWANO        PTSUNNY   50  37  59 E3        29.69S
6HR MIN TEMP:  47; 6HR MAX TEMP:  55;

OCONTO         CLOUDY    50  39  67 SE10      29.71S
6HR MIN TEMP:  43; 6HR MAX TEMP:  50;

STURGEON BAY   MOSUNNY   48  40  73 SE17      29.73S
6HR MIN TEMP:  47; 6HR MAX TEMP:  53;

GREEN BAY      CLOUDY    51  43  74 SE6       29.70S
6HR MIN TEMP:  47; 6HR MAX TEMP:  53;

MANITOWOC      CLOUDY    49  39  68 S15       29.73S
6HR MIN TEMP:  43; 6HR MAX TEMP:  52;

APPLETON       PTSUNNY   54  37  54 SE10      29.67S
CLINTONVILLE   MOSUNNY   50  36  57 SE3       29.68S
OSHKOSH        CLOUDY    53  40  61 S8        29.67S
6HR MIN TEMP:  52; 6HR MAX TEMP:  58;

$$

WIZ032>034-041-042-053>061-251300-
SOUTHWEST WISCONSIN

CITY           SKY/WX    TMP DP  RH WIND       PRES   REMARKS
LA CROSSE      CLOUDY    59  36  42 SE8       29.56S
6HR MIN TEMP:  58; 6HR MAX TEMP:  65;

SPARTA         CLOUDY    57  35  43 S5        29.60S
6HR MIN TEMP:  56; 6HR MAX TEMP:  62;

VIROQUA        CLOUDY    53  34  49 SE10      29.60R
6HR MIN TEMP:  51; 6HR MAX TEMP:  59;

BOSCOBEL       CLEAR     53  36  52 CALM      29.60S
6HR MIN TEMP:  49; 6HR MAX TEMP:  62;

PRAIRIE DU CHI CLEAR     54  34  46 E7        29.59S
6HR MIN TEMP:  53; 6HR MAX TEMP:  58;

PLATTEVILLE    CLEAR     49  39  67 E7        29.62S
6HR MIN TEMP:  48; 6HR MAX TEMP:  56;

$$

WIZ056-057-062-063-064-067-068-251300-
SOUTH CENTRAL WISCONSIN

CITY           SKY/WX    TMP DP  RH WIND       PRES   REMARKS
REEDSBURG      MOCLDY    54  38  54 CALM      29.62S
6HR MIN TEMP:  53; 6HR MAX TEMP:  59;

BARABOO/DELLS  MOCLDY    54  38  56 S8        29.62S
6HR MIN TEMP:  53; 6HR MAX TEMP:  59;

LONE ROCK      CLEAR     52  39  61 E8        29.62S
6HR MIN TEMP:  49; 6HR MAX TEMP:  57;

MINERAL POINT  CLEAR     52  37  58 SE9       29.62S
MADISON        MOCLDY    54  40  59 S8        29.65S
6HR MIN TEMP:  54; 6HR MAX TEMP:  60;

MIDDLETON      PTCLDY    54  41  60 SE7       29.65S
6HR MIN TEMP:  54; 6HR MAX TEMP:  62;

WATERTOWN      PTSUNNY   55  44  67 SE8       29.66F
6HR MIN TEMP:  53; 6HR MAX TEMP:  58;

MONROE         CLEAR     50  41  71 SE10      29.64S
JANESVILLE     PTSUNNY   55  43  62 SE8       29.66S
$$

WIZ051-052-058>065-066-070>072-251300-
SOUTHEAST WISCONSIN

CITY           SKY/WX    TMP DP  RH WIND       PRES   REMARKS
MILWAUKEE      CLOUDY    53  44  71 SE12      29.70F
6HR MIN TEMP:  48; 6HR MAX TEMP:  53;

WAUKESHA       SUNNY     52  43  71 SE13      29.70F
MILWAUKEE/TIMM CLOUDY    52  41  66 SE5       29.71S
RACINE         CLOUDY    50  43  77 S14       29.73S
6HR MIN TEMP:  49; 6HR MAX TEMP:  56;

KENOSHA        CLOUDY    53  45  74 SE12      29.70F
6HR MIN TEMP:  50; 6HR MAX TEMP:  55;

FOND DU LAC    MOSUNNY   53  40  61 S9        29.68R
6HR MIN TEMP:  52; 6HR MAX TEMP:  59;

SHEBOYGAN      CLOUDY    48  41  76 S6        29.73R
6HR MIN TEMP:  45; 6HR MAX TEMP:  52;

WEST BEND      CLOUDY    48  41  76 SE5       29.71R
JUNEAU         PTSUNNY   53  42  68 SE9       29.68F
6HR MIN TEMP:  50; 6HR MAX TEMP:  57;

$$

LSZ147-162-251300-
LAKE SUPERIOR

STATION/POSITION TIME  TEMP    WIND        PRES    WAVE
                       AIR SEA DIR/SP/G            HT/PER
                 (UTC) (F)     (DEG/KT/KT) (MB)    (FT/S)
DEVILS ISLAND    1100   39      80/ 17/ 18 1003.1F
PORT WING        1040   39      40/  2/  4 1002.0F
SAXON HARBOR     1130   43     220/  1/  3 1001.4F
$$

LMZ867-665-643>646-251300-
LAKE MICHIGAN

STATION/POSITION TIME  TEMP    WIND        PRES    WAVE
                       AIR SEA DIR/SP/G            HT/PER
                 (UTC) (F)     (DEG/KT/KT) (MB)    (FT/S)
CHAMBERS ISLAND  1140   51     120/  8/ 12 1006.4S
N MID LAKE BUOY  1150   41 37  120/ 10/ 10 1008.9F   1/ 4
NORT



USA.gov is the U.S. government's official web portal to all federal, state and local government web resources and services.